Time,TemperatureF,DewpointF,PressureIn,WindDirection,WindDirectionDegrees,WindSpeedMPH,WindSpeedGustMPH,Humidity,HourlyPrecipIn,Conditions,Clouds,dailyrainin,SoftwareType,DateUTC
2013-03-29 00:03:00,43.0,-99.9,-100.00,SSE,160,3.0,4.0,-999,0.00,,,0.00,,2013-03-29 05:03:00,
2013-03-29 00:13:00,43.0,-99.9,-100.00,SSE,166,2.0,5.0,-999,0.00,,,0.00,,2013-03-29 05:13:00,
2013-03-29 00:23:00,43.0,-99.9,-100.00,SSE,166,2.0,5.0,-999,0.00,,,0.00,,2013-03-29 05:23:00,
2013-03-29 00:33:00,43.0,-99.9,-100.00,SSE,166,2.0,5.0,-999,0.00,,,0.00,,2013-03-29 05:33:00,
2013-03-29 00:44:00,42.0,-99.9,-100.00,SSE,163,1.0,3.0,-999,0.00,,,0.00,,2013-03-29 05:44:00,
2013-03-29 00:53:00,42.0,-99.9,-100.00,SSE,163,1.0,3.0,-999,0.00,,,0.00,,2013-03-29 05:53:00,
2013-03-29 01:03:00,42.0,-99.9,-100.00,SSE,163,1.0,3.0,-999,0.00,,,0.00,,2013-03-29 06:03:00,
2013-03-29 01:13:00,42.0,-99.9,-100.00,SSE,158,2.0,3.0,-999,0.00,,,-99.99,,2013-03-29 06:13:00,
2013-03-29 01:23:00,42.0,-99.9,-100.00,SSE,158,2.0,3.0,-999,0.00,,,-99.99,,2013-03-29 06:23:00,
2013-03-29 01:32:00,42.0,-99.9,-100.00,SSE,158,2.0,3.0,-999,0.00,,,-99.99,,2013-03-29 06:32:00,
2013-03-29 01:42:00,41.0,-99.9,-100.00,SSE,157,2.0,4.0,-999,0.00,,,0.00,,2013-03-29 06:42:00,
2013-03-29 01:52:00,41.0,-99.9,-100.00,SSE,157,2.0,4.0,-999,0.00,,,0.00,,2013-03-29 06:52:00,
2013-03-29 02:03:00,41.0,-99.9,-100.00,SSE,157,2.0,4.0,-999,0.00,,,0.00,,2013-03-29 07:03:00,
2013-03-29 02:12:00,40.0,-99.9,-100.00,SE,130,1.0,1.0,-999,0.00,,,0.00,,2013-03-29 07:12:00,
2013-03-29 02:22:00,40.0,-99.9,-100.00,SE,130,1.0,1.0,-999,0.00,,,0.00,,2013-03-29 07:22:00,
2013-03-29 02:32:00,40.0,-99.9,-100.00,SE,130,1.0,1.0,-999,0.00,,,0.00,,2013-03-29 07:32:00,
2013-03-29 02:42:00,39.0,-99.9,-100.00,NE,53,2.0,2.0,-999,0.00,,,0.00,,2013-03-29 07:42:00,
2013-03-29 02:52:00,39.0,-99.9,-100.00,NE,53,2.0,2.0,-999,0.00,,,0.00,,2013-03-29 07:52:00,
2013-03-29 03:02:00,39.0,-99.9,-100.00,NE,53,2.0,2.0,-999,0.00,,,0.00,,2013-03-29 08:02:00,
2013-03-29 03:13:00,38.0,-99.9,-100.00,NE,50,2.0,3.0,-999,0.00,,,0.00,,2013-03-29 08:13:00,
2013-03-29 03:22:00,38.0,-99.9,-100.00,NE,50,2.0,3.0,-999,0.00,,,0.00,,2013-03-29 08:22:00,
2013-03-29 03:32:00,38.0,-99.9,-100.00,NE,50,2.0,3.0,-999,0.00,,,0.00,,2013-03-29 08:32:00,
2013-03-29 03:42:00,36.0,-99.9,-100.00,ENE,62,2.0,3.0,-999,0.00,,,0.00,,2013-03-29 08:42:00,
2013-03-29 03:53:00,36.0,-99.9,-100.00,ENE,62,2.0,3.0,-999,0.00,,,0.00,,2013-03-29 08:53:00,
2013-03-29 04:02:00,36.0,-99.9,-100.00,ENE,62,2.0,3.0,-999,0.00,,,0.00,,2013-03-29 09:02:00,
2013-03-29 04:13:00,34.0,-99.9,-100.00,NE,41,1.0,2.0,-999,0.00,,,0.00,,2013-03-29 09:13:00,
2013-03-29 04:22:00,34.0,-99.9,-100.00,NE,41,1.0,2.0,-999,0.00,,,0.00,,2013-03-29 09:22:00,
2013-03-29 04:33:00,34.0,-99.9,-100.00,NE,41,1.0,2.0,-999,0.00,,,0.00,,2013-03-29 09:33:00,
2013-03-29 04:43:00,34.0,-99.9,-100.00,ENE,70,2.0,3.0,-999,0.00,,,0.00,,2013-03-29 09:43:00,
2013-03-29 04:53:00,34.0,-99.9,-100.00,ENE,70,2.0,3.0,-999,0.00,,,0.00,,2013-03-29 09:53:00,
2013-03-29 05:03:00,34.0,-99.9,-100.00,ENE,70,2.0,3.0,-999,0.00,,,0.00,,2013-03-29 10:03:00,
2013-03-29 05:12:00,34.0,-99.9,-100.00,NE,40,1.0,2.0,-999,0.00,,,0.00,,2013-03-29 10:12:00,
2013-03-29 05:23:00,34.0,-99.9,-100.00,NE,40,1.0,2.0,-999,0.00,,,0.00,,2013-03-29 10:23:00,
2013-03-29 05:33:00,34.0,-99.9,-100.00,NE,40,1.0,2.0,-999,0.00,,,0.00,,2013-03-29 10:33:00,
2013-03-29 05:43:00,33.0,-99.9,-100.00,NNE,32,1.0,2.0,-999,0.00,,,0.00,,2013-03-29 10:43:00,
2013-03-29 05:54:00,33.0,-99.9,-100.00,NNE,32,1.0,2.0,-999,0.00,,,0.00,,2013-03-29 10:54:00,
2013-03-29 06:04:00,33.0,-99.9,-100.00,NNE,32,1.0,2.0,-999,0.00,,,0.00,,2013-03-29 11:04:00,
2013-03-29 06:13:00,32.0,-99.9,-100.00,NE,41,1.0,2.0,-999,0.00,,,0.00,,2013-03-29 11:13:00,
2013-03-29 06:24:00,32.0,-99.9,-100.00,NE,41,1.0,2.0,-999,0.00,,,0.00,,2013-03-29 11:24:00,
2013-03-29 06:33:00,32.0,-99.9,-100.00,NE,41,1.0,2.0,-999,0.00,,,0.00,,2013-03-29 11:33:00,
2013-03-29 06:43:00,32.0,-99.9,-100.00,NE,45,0.0,1.0,-999,0.00,,,0.00,,2013-03-29 11:43:00,
2013-03-29 06:53:00,32.0,-99.9,-100.00,NE,45,0.0,1.0,-999,0.00,,,0.00,,2013-03-29 11:53:00,
2013-03-29 07:03:00,32.0,-99.9,-100.00,NE,45,0.0,1.0,-999,0.00,,,0.00,,2013-03-29 12:03:00,
2013-03-29 07:13:00,32.0,-99.9,-100.00,NE,54,1.0,1.0,-999,0.00,,,0.00,,2013-03-29 12:13:00,
2013-03-29 07:22:00,32.0,-99.9,-100.00,NE,54,1.0,1.0,-999,0.00,,,0.00,,2013-03-29 12:22:00,
2013-03-29 07:33:00,32.0,-99.9,-100.00,NE,54,1.0,1.0,-999,0.00,,,0.00,,2013-03-29 12:33:00,
2013-03-29 07:43:00,32.0,-99.9,-100.00,ENE,58,1.0,1.0,-999,0.00,,,0.00,,2013-03-29 12:43:00,
2013-03-29 07:53:00,32.0,-99.9,-100.00,ENE,58,1.0,1.0,-999,0.00,,,0.00,,2013-03-29 12:53:00,
2013-03-29 08:03:00,32.0,-99.9,-100.00,ENE,58,1.0,1.0,-999,0.00,,,0.00,,2013-03-29 13:03:00,
2013-03-29 08:13:00,35.0,-99.9,-100.00,NNE,21,0.0,0.0,-999,0.00,,,0.00,,2013-03-29 13:13:00,
2013-03-29 08:23:00,35.0,-99.9,-100.00,NNE,21,0.0,0.0,-999,0.00,,,0.00,,2013-03-29 13:23:00,
2013-03-29 08:33:00,35.0,-99.9,-100.00,NNE,21,0.0,0.0,-999,0.00,,,0.00,,2013-03-29 13:33:00,
2013-03-29 08:43:00,38.0,-99.9,-100.00,ENE,71,1.0,1.0,-999,0.00,,,0.00,,2013-03-29 13:43:00,
2013-03-29 08:53:00,38.0,-99.9,-100.00,ENE,71,1.0,1.0,-999,0.00,,,0.00,,2013-03-29 13:53:00,
2013-03-29 09:03:00,38.0,-99.9,-100.00,ENE,71,1.0,1.0,-999,0.00,,,0.00,,2013-03-29 14:03:00,
2013-03-29 09:13:00,41.0,-99.9,-100.00,East,83,2.0,3.0,-999,0.00,,,-99.99,,2013-03-29 14:13:00,
2013-03-29 09:22:00,41.0,-99.9,-100.00,East,83,2.0,3.0,-999,0.00,,,-99.99,,2013-03-29 14:22:00,
2013-03-29 09:33:00,41.0,-99.9,-100.00,East,83,2.0,3.0,-999,0.00,,,-99.99,,2013-03-29 14:33:00,
2013-03-29 09:43:00,45.0,-99.9,-100.00,East,98,3.0,6.0,-999,0.00,,,0.00,,2013-03-29 14:43:00,
2013-03-29 09:53:00,45.0,-99.9,-100.00,East,98,3.0,6.0,-999,0.00,,,0.00,,2013-03-29 14:53:00,
2013-03-29 10:03:00,45.0,-99.9,-100.00,East,98,3.0,6.0,-999,0.00,,,0.00,,2013-03-29 15:03:00,
2013-03-29 10:12:00,46.0,-99.9,-100.00,East,98,4.0,7.0,-999,0.00,,,0.00,,2013-03-29 15:12:00,
2013-03-29 10:22:00,46.0,-99.9,-100.00,East,98,4.0,7.0,-999,0.00,,,0.00,,2013-03-29 15:22:00,
2013-03-29 10:33:00,46.0,-99.9,-100.00,East,98,4.0,7.0,-999,0.00,,,0.00,,2013-03-29 15:33:00,
2013-03-29 10:43:00,47.0,-99.9,-100.00,SSE,153,5.0,7.0,-999,0.00,,,0.00,,2013-03-29 15:43:00,
2013-03-29 10:53:00,47.0,-99.9,-100.00,SSE,153,5.0,7.0,-999,0.00,,,0.00,,2013-03-29 15:53:00,
2013-03-29 11:03:00,47.0,-99.9,-100.00,SSE,153,5.0,7.0,-999,0.00,,,0.00,,2013-03-29 16:03:00,
2013-03-29 11:13:00,50.0,-99.9,-100.00,ESE,122,5.0,9.0,-999,0.00,,,0.00,,2013-03-29 16:13:00,
2013-03-29 11:23:00,50.0,-99.9,-100.00,ESE,122,5.0,9.0,-999,0.00,,,0.00,,2013-03-29 16:23:00,
2013-03-29 11:33:00,50.0,-99.9,-100.00,ESE,122,5.0,9.0,-999,0.00,,,0.00,,2013-03-29 16:33:00,
2013-03-29 11:43:00,50.0,-99.9,-100.00,SSE,155,3.0,4.0,-999,0.00,,,0.00,,2013-03-29 16:43:00,
2013-03-29 11:53:00,50.0,-99.9,-100.00,SSE,155,3.0,4.0,-999,0.00,,,0.00,,2013-03-29 16:53:00,
2013-03-29 12:04:00,50.0,-99.9,-100.00,SSE,155,3.0,4.0,-999,0.00,,,0.00,,2013-03-29 17:04:00,
2013-03-29 12:12:00,54.0,-99.9,-100.00,ESE,108,3.0,5.0,-999,0.00,,,0.00,,2013-03-29 17:12:00,
2013-03-29 12:23:00,54.0,-99.9,-100.00,ESE,108,3.0,5.0,-999,0.00,,,0.00,,2013-03-29 17:23:00,
2013-03-29 12:34:00,54.0,-99.9,-100.00,ESE,108,3.0,5.0,-999,0.00,,,0.00,,2013-03-29 17:34:00,
2013-03-29 12:44:00,54.0,-99.9,-100.00,SE,127,4.0,6.0,-999,0.00,,,0.00,,2013-03-29 17:44:00,
2013-03-29 12:53:00,54.0,-99.9,-100.00,SE,127,4.0,6.0,-999,0.00,,,0.00,,2013-03-29 17:53:00,
2013-03-29 13:03:00,54.0,-99.9,-100.00,SE,127,4.0,6.0,-999,0.00,,,0.00,,2013-03-29 18:03:00,
2013-03-29 13:13:00,54.0,-99.9,-100.00,South,170,2.0,5.0,-999,0.00,,,0.00,,2013-03-29 18:13:00,
2013-03-29 13:23:00,54.0,-99.9,-100.00,South,170,2.0,5.0,-999,0.00,,,0.00,,2013-03-29 18:23:00,
2013-03-29 13:33:00,54.0,-99.9,-100.00,South,170,2.0,5.0,-999,0.00,,,0.00,,2013-03-29 18:33:00,
2013-03-29 13:43:00,57.0,-99.9,-100.00,SSW,211,3.0,6.0,-999,0.00,,,0.00,,2013-03-29 18:43:00,
2013-03-29 13:53:00,57.0,-99.9,-100.00,SSW,211,3.0,6.0,-999,0.00,,,0.00,,2013-03-29 18:53:00,
2013-03-29 14:03:00,57.0,-99.9,-100.00,SSW,211,3.0,6.0,-999,0.00,,,0.00,,2013-03-29 19:03:00,
2013-03-29 14:13:00,56.0,-99.9,-100.00,SE,145,4.0,10.0,-999,0.00,,,0.00,,2013-03-29 19:13:00,
2013-03-29 14:23:00,56.0,-99.9,-100.00,SE,145,4.0,10.0,-999,0.00,,,0.00,,2013-03-29 19:23:00,
2013-03-29 14:33:00,56.0,-99.9,-100.00,SE,145,4.0,10.0,-999,0.00,,,0.00,,2013-03-29 19:33:00,
2013-03-29 14:43:00,59.0,-99.9,-100.00,SW,217,2.0,5.0,-999,0.00,,,0.00,,2013-03-29 19:43:00,
2013-03-29 14:53:00,59.0,-99.9,-100.00,SW,217,2.0,5.0,-999,0.00,,,0.00,,2013-03-29 19:53:00,
2013-03-29 15:03:00,59.0,-99.9,-100.00,SW,217,2.0,5.0,-999,0.00,,,0.00,,2013-03-29 20:03:00,
2013-03-29 15:12:00,56.0,-99.9,-100.00,SSE,163,4.0,6.0,-999,0.00,,,0.00,,2013-03-29 20:12:00,
2013-03-29 15:23:00,56.0,-99.9,-100.00,SSE,163,4.0,6.0,-999,0.00,,,0.00,,2013-03-29 20:23:00,
2013-03-29 15:33:00,56.0,-99.9,-100.00,SSE,163,4.0,6.0,-999,0.00,,,0.00,,2013-03-29 20:33:00,
2013-03-29 15:42:00,59.0,-99.9,-100.00,East,101,6.0,10.0,-999,0.00,,,0.00,,2013-03-29 20:42:00,
2013-03-29 15:52:00,59.0,-99.9,-100.00,East,101,6.0,10.0,-999,0.00,,,0.00,,2013-03-29 20:52:00,
2013-03-29 16:02:00,59.0,-99.9,-100.00,East,101,6.0,10.0,-999,0.00,,,0.00,,2013-03-29 21:02:00,
2013-03-29 16:12:00,58.0,-99.9,-100.00,SE,143,2.0,4.0,-999,0.00,,,0.00,,2013-03-29 21:12:00,
2013-03-29 16:23:00,58.0,-99.9,-100.00,SE,143,2.0,4.0,-999,0.00,,,0.00,,2013-03-29 21:23:00,
2013-03-29 16:33:00,58.0,-99.9,-100.00,SE,143,2.0,4.0,-999,0.00,,,0.00,,2013-03-29 21:33:00,
2013-03-29 16:43:00,58.0,-99.9,-100.00,SE,136,3.0,8.0,-999,0.00,,,0.00,,2013-03-29 21:43:00,
2013-03-29 16:53:00,58.0,-99.9,-100.00,SE,136,3.0,8.0,-999,0.00,,,0.00,,2013-03-29 21:53:00,
2013-03-29 17:03:00,58.0,-99.9,-100.00,SE,136,3.0,8.0,-999,0.00,,,0.00,,2013-03-29 22:03:00,
2013-03-29 17:13:00,59.0,-99.9,-100.00,SE,142,2.0,5.0,-999,0.00,,,0.00,,2013-03-29 22:13:00,
2013-03-29 17:23:00,59.0,-99.9,-100.00,SE,142,2.0,5.0,-999,0.00,,,0.00,,2013-03-29 22:23:00,
2013-03-29 17:34:00,59.0,-99.9,-100.00,SE,142,2.0,5.0,-999,0.00,,,0.00,,2013-03-29 22:34:00,
2013-03-29 17:43:00,60.0,-99.9,-100.00,ESE,110,1.0,5.0,-999,0.00,,,0.00,,2013-03-29 22:43:00,
2013-03-29 17:54:00,60.0,-99.9,-100.00,ESE,110,1.0,5.0,-999,0.00,,,0.00,,2013-03-29 22:54:00,
2013-03-29 18:03:00,60.0,-99.9,-100.00,ESE,110,1.0,5.0,-999,0.00,,,0.00,,2013-03-29 23:03:00,
2013-03-29 18:12:00,59.0,-99.9,-100.00,ESE,111,3.0,5.0,-999,0.00,,,0.00,,2013-03-29 23:12:00,
2013-03-29 18:22:00,59.0,-99.9,-100.00,ESE,111,3.0,5.0,-999,0.00,,,0.00,,2013-03-29 23:22:00,
2013-03-29 18:33:00,59.0,-99.9,-100.00,ESE,111,3.0,5.0,-999,0.00,,,0.00,,2013-03-29 23:33:00,
2013-03-29 18:43:00,59.0,-99.9,-100.00,East,92,2.0,5.0,-999,0.00,,,0.00,,2013-03-29 23:43:00,
2013-03-29 18:53:00,59.0,-99.9,-100.00,East,92,2.0,5.0,-999,0.00,,,0.00,,2013-03-29 23:53:00,
2013-03-29 19:03:00,59.0,-99.9,-100.00,East,92,2.0,5.0,-999,0.00,,,0.00,,2013-03-30 00:03:00,
2013-03-29 19:13:00,58.0,-99.9,-100.00,ESE,107,1.0,3.0,-999,0.00,,,0.00,,2013-03-30 00:13:00,
2013-03-29 19:23:00,58.0,-99.9,-100.00,ESE,107,1.0,3.0,-999,0.00,,,0.00,,2013-03-30 00:23:00,
2013-03-29 19:33:00,58.0,-99.9,-100.00,ESE,107,1.0,3.0,-999,0.00,,,0.00,,2013-03-30 00:33:00,
2013-03-29 19:43:00,56.0,-99.9,-100.00,SSE,152,2.0,3.0,-999,0.00,,,0.00,,2013-03-30 00:43:00,
2013-03-29 19:53:00,56.0,-99.9,-100.00,SSE,152,2.0,3.0,-999,0.00,,,0.00,,2013-03-30 00:53:00,
2013-03-29 20:03:00,56.0,-99.9,-100.00,SSE,152,2.0,3.0,-999,0.00,,,0.00,,2013-03-30 01:03:00,
2013-03-29 20:13:00,52.0,-99.9,-100.00,ENE,77,2.0,3.0,-999,0.00,,,0.00,,2013-03-30 01:13:00,
2013-03-29 20:23:00,52.0,-99.9,-100.00,ENE,77,2.0,3.0,-999,0.00,,,0.00,,2013-03-30 01:23:00,
2013-03-29 20:33:00,52.0,-99.9,-100.00,ENE,77,2.0,3.0,-999,0.00,,,0.00,,2013-03-30 01:33:00,
2013-03-29 20:43:00,51.0,-99.9,-100.00,SSE,151,0.0,1.0,-999,0.00,,,0.00,,2013-03-30 01:43:00,
2013-03-29 20:53:00,51.0,-99.9,-100.00,SSE,151,0.0,1.0,-999,0.00,,,0.00,,2013-03-30 01:53:00,
2013-03-29 21:03:00,51.0,-99.9,-100.00,SSE,151,0.0,1.0,-999,0.00,,,0.00,,2013-03-30 02:03:00,
2013-03-29 21:13:00,48.0,-99.9,-100.00,ENE,63,2.0,2.0,-999,0.00,,,0.00,,2013-03-30 02:13:00,
2013-03-29 21:23:00,48.0,-99.9,-100.00,ENE,63,2.0,2.0,-999,0.00,,,0.00,,2013-03-30 02:23:00,
2013-03-29 21:33:00,48.0,-99.9,-100.00,ENE,63,2.0,2.0,-999,0.00,,,0.00,,2013-03-30 02:33:00,
2013-03-29 21:43:00,48.0,-99.9,-100.00,East,90,1.0,1.0,-999,0.00,,,0.00,,2013-03-30 02:43:00,
2013-03-29 21:53:00,48.0,-99.9,-100.00,East,90,1.0,1.0,-999,0.00,,,0.00,,2013-03-30 02:53:00,
2013-03-29 22:03:00,48.0,-99.9,-100.00,East,90,1.0,1.0,-999,0.00,,,0.00,,2013-03-30 03:03:00,
2013-03-29 22:12:00,48.0,-99.9,-100.00,ESE,110,1.0,2.0,-999,0.00,,,0.00,,2013-03-30 03:12:00,
2013-03-29 22:22:00,48.0,-99.9,-100.00,ESE,110,1.0,2.0,-999,0.00,,,0.00,,2013-03-30 03:22:00,
2013-03-29 22:33:00,48.0,-99.9,-100.00,ESE,110,1.0,2.0,-999,0.00,,,0.00,,2013-03-30 03:33:00,
2013-03-29 22:44:00,47.0,-99.9,-100.00,ESE,123,2.0,2.0,-999,0.00,,,0.00,,2013-03-30 03:44:00,
2013-03-29 22:53:00,47.0,-99.9,-100.00,ESE,123,2.0,2.0,-999,0.00,,,0.00,,2013-03-30 03:53:00,
2013-03-29 23:02:00,47.0,-99.9,-100.00,ESE,123,2.0,2.0,-999,0.00,,,0.00,,2013-03-30 04:02:00,
2013-03-29 23:13:00,46.0,-99.9,-100.00,SE,127,1.0,2.0,-999,0.00,,,0.00,,2013-03-30 04:13:00,
2013-03-29 23:23:00,46.0,-99.9,-100.00,SE,127,1.0,2.0,-999,0.00,,,0.00,,2013-03-30 04:23:00,
2013-03-29 23:33:00,46.0,-99.9,-100.00,SE,127,1.0,2.0,-999,0.00,,,0.00,,2013-03-30 04:33:00,
2013-03-29 23:43:00,45.0,-99.9,-100.00,ESE,102,2.0,4.0,-999,0.00,,,0.00,,2013-03-30 04:43:00,
2013-03-29 23:53:00,45.0,-99.9,-100.00,ESE,102,2.0,4.0,-999,0.00,,,0.00,,2013-03-30 04:53:00,